[[{"header":{"parameterUnit":"m.s-1","parameterCategory":1,"la1":30.2991,"la2":30.254,"lo1":-89.0895,"lo2":-89.0444,"dy":0.0017,"dx":0.0017,"nx":28,"ny":28,"refTime":"2024-04-09T21:00:00:Z","depth":0,"parameterNumber":2,"parameterNumberName":"U-component_of_WINDS"},"data":[0,0,0,0,0,0,0,0,0,0,0,0,0,0,0,0,0,0,0,0,0,0,0,0,0,0,0,0,0,0,0,0,0,0,0,0,0,0,0,0,0,0,0,0,0,0,0,0,0,0,0,0,0,0,0,0,0,0,-6.1925,-6.1927,0,-6.2092,-6.2093,-6.2095,-6.2114,-6.2112,-6.2111,-6.2109,-6.2279,-6.2285,-6.2291,0,0,0,0,0,0,0,0,0,0,0,0,0,-6.1623,-6.1628,-6.1925,-6.1927,-6.1929,-6.2091,-6.2094,-6.2096,-6.2114,-6.2112,-6.211,-6.2108,-6.2277,-6.2284,-6.2291,0,0,0,0,0,0,0,0,0,0,0,0,0,-6.1768,-6.163,-6.1924,-6.1958,-6.1962,-6.2091,-6.2094,-6.2096,-6.2115,-6.2112,-6.211,-6.2107,-6.2274,-6.2283,-6.2292,-6.2399,0,0,-6.232,-6.2324,0,0,0,0,0,0,0,0,-6.176,-6.1779,-6.1951,-6.1956,-6.1961,-6.2079,-6.2049,-6.2198,-6.2115,-6.2057,-6.2109,-6.2106,-6.2214,-6.2228,-6.2265,-6.2407,-6.2414,-6.2321,-6.2327,-6.233,-6.2333,0,0,0,0,0,0,0,-6.175,-6.1772,-6.1991,-6.1953,-6.196,-6.1964,-6.1982,-6.2077,-6.2148,-6.2062,-6.2064,-6.2083,-6.2217,-6.2256,-6.2269,-6.2416,-6.2321,-6.2329,-6.2334,-6.2338,-6.2653,-6.2656,0,0,0,0,0,0,-6.1733,-6.1763,-6.1985,-6.1996,-6.1852,-6.1972,-6.1992,-6.2044,-6.2147,-6.216,-6.2085,-6.2083,-6.2242,-6.2259,-6.2275,-6.2405,-6.233,-6.2339,-6.2344,-6.265,-6.2654,-6.2657,0,0,0,0,0,0,-6.1727,-6.1753,-6.1979,-6.188,-6.1909,-6.198,-6.2038,-6.2049,-6.2088,-6.2164,-6.2177,-6.2112,-6.2241,-6.2262,-6.2368,-6.2412,-6.2343,-6.2351,-6.2647,-6.2651,-6.2655,-6.2667,0,0,0,0,0,0,-6.1718,-6.1751,-6.1791,-6.1881,-6.1915,-6.2068,-6.2041,-6.2054,-6.2104,-6.2103,-6.2193,-6.2206,-6.224,-6.2354,-6.2377,-6.2423,-6.2358,-6.2643,-6.2649,-6.2654,-6.2663,-6.2671,-6.2678,0,0,0,0,0,-6.1707,-6.1788,-6.1793,-6.182,-6.1967,-6.2071,-6.209,-6.2128,-6.2107,-6.2149,-6.2198,-6.2203,-6.2404,-6.2365,-6.2391,-6.244,-6.2641,-6.2647,-6.2654,-6.266,-6.267,-6.2678,0,0,0,0,0,0,-6.1701,-6.18,-6.1807,-6.192,-6.1987,-6.2074,-6.2127,-6.2138,-6.2212,-6.2208,-6.2253,-6.2273,-6.2376,-6.2419,-6.2374,-6.2548,-6.252,-6.2532,-6.2516,-6.2526,-6.2533,-6.252,-6.2366,0,0,0,0,0,-6.1713,-6.1789,-6.1872,-6.1963,-6.1996,-6.2056,-6.2103,-6.2127,-6.2198,-6.2226,-6.2283,-6.2352,-6.243,-6.2481,-6.2558,-6.2671,-6.269,-6.2717,-6.2725,-6.2731,-6.274,-6.2802,-6.2815,-6.2679,-6.2679,-6.2678,0,0,-6.1738,-6.1802,-6.1847,-6.1963,-6.2018,-6.2095,-6.208,-6.2162,-6.222,-6.2239,-6.2341,-6.2386,-6.2466,-6.2575,-6.2626,-6.2613,-6.2782,-6.2739,-6.2743,-6.2749,-6.281,-6.2823,-6.2834,-6.2683,-6.2682,-6.2681,0,0,-6.1822,-6.1879,-6.196,-6.2016,-6.2099,-6.2139,-6.2159,-6.2245,-6.2275,-6.2379,-6.2394,-6.2464,-6.2599,-6.2655,-6.2701,-6.2809,-6.2815,-6.2833,-6.2871,-6.2931,-6.2942,-6.2952,-6.2988,-6.3001,-6.2842,-6.2842,-6.2842,0,-6.1842,-6.196,-6.2001,-6.2083,-6.2133,-6.2155,-6.2238,-6.229,-6.2394,-6.2428,-6.2414,-6.2583,-6.2639,-6.2761,-6.2787,-6.2825,-6.2848,-6.2821,-6.2937,-6.2947,-6.2957,-6.2992,-6.3006,-6.2843,-6.2843,-6.2843,-6.2843,0,-6.1979,-6.2061,-6.2117,-6.2217,-6.2274,-6.2356,-6.2409,-6.2463,-6.2483,-6.2524,-6.2629,-6.2697,-6.2787,-6.2819,-6.2839,-6.2944,-6.2934,-6.2928,-6.29,-6.2971,-6.3004,-6.3019,-6.2845,-6.2845,-6.2844,-6.2844,0,0,-6.2062,-6.2185,-6.2204,-6.225,-6.2345,-6.2408,-6.2492,-6.258,-6.2624,-6.2697,-6.2767,-6.2881,-6.2876,-6.2929,-6.2956,-6.3009,-6.3088,-6.2997,-6.2999,-6.3009,-6.3207,-6.3208,-6.3223,-6.3094,-6.3097,-6.31,-6.3199,0,-6.2155,-6.2304,-6.2344,-6.247,-6.2545,-6.2568,-6.264,-6.2706,-6.2747,-6.2817,-6.2863,-6.2943,-6.2932,-6.2963,-6.3017,-6.3067,-6.3128,-6.3061,-6.3159,-6.3162,-6.3135,-6.3242,-6.3244,-6.3334,-6.3213,-6.3215,-6.3217,0,-6.2284,-6.2358,-6.2491,-6.2576,-6.2609,-6.2673,-6.2758,-6.2825,-6.29,-6.2927,-6.2986,-6.3008,-6.3096,-6.3066,-6.3187,-6.314,-6.3184,-6.3215,-6.3219,-6.3227,-6.3191,-6.325,-6.3364,-6.3377,-6.3239,-6.3237,-6.3235,0,-6.2328,-6.2462,-6.2558,-6.2597,-6.2699,-6.2743,-6.2788,-6.2861,-6.2912,-6.2987,-6.302,-6.3104,-6.3149,-6.3214,-6.3258,-6.3232,-6.3375,-6.3349,-6.3398,-6.3397,-6.3425,-6.3422,-6.3545,-6.3457,-6.3457,-6.3457,-6.3456,0,-6.2426,-6.2506,-6.2579,-6.2638,-6.2729,-6.2775,-6.2863,-6.2909,-6.2974,-6.3042,-6.3069,-6.3132,-6.3188,-6.326,-6.3295,-6.3389,-6.341,-6.3434,-6.3441,-6.343,-6.3426,-6.3456,-6.345,-6.346,-6.346,-6.3459,-6.3458,0,-6.249,-6.2542,-6.2649,-6.2737,-6.2761,-6.2823,-6.2899,-6.2957,-6.3,-6.3087,-6.311,-6.3177,-6.3262,-6.3314,-6.3422,-6.3446,-6.355,-6.3557,-6.3524,-6.3527,-6.3572,-6.3567,-6.3717,-6.3738,-6.3638,-6.3639,-6.364,0,-6.2548,-6.261,-6.2705,-6.2752,-6.2797,-6.2874,-6.2926,-6.2975,-6.3028,-6.3119,-6.3166,-6.3254,-6.3326,-6.3461,-6.352,-6.3603,-6.361,-6.3657,-6.3623,-6.3609,-6.3608,-6.3603,-6.3609,-6.3662,-6.3663,-6.3663,-6.3664,0,-6.2645,-6.2668,-6.2742,-6.2825,-6.2887,-6.2955,-6.3023,-6.3061,-6.3121,-6.3179,-6.3267,-6.3323,-6.3434,-6.3519,-6.3608,-6.3654,-6.3669,-6.3675,-6.369,-6.3677,-6.3655,-6.3666,-6.3537,-6.3671,-6.367,-6.3669,-6.3669,-6.3669,-6.2706,-6.2762,-6.2837,-6.2919,-6.2975,-6.3038,-6.3097,-6.3148,-6.3222,-6.3315,-6.334,-6.3432,-6.3506,-6.3626,-6.3675,-6.3747,-6.374,-6.3763,-6.3768,-6.3772,-6.3772,-6.3646,-6.3764,-6.3764,-6.3764,-6.3763,-6.3763,0,-6.2802,-6.2852,-6.2927,-6.3021,-6.3085,-6.3095,-6.3171,-6.3224,-6.3304,-6.3373,-6.3443,-6.3544,-6.3628,-6.3694,-6.3779,-6.3825,-6.3834,-6.3845,-6.3841,-6.3851,-6.3775,-6.3752,-6.3837,-6.3837,-6.3837,-6.3837,-6.3837,-6.3837,-6.286,-6.2954,-6.2986,-6.3109,-6.3159,-6.3249,-6.3291,-6.3349,-6.3404,-6.3515,-6.3585,-6.3627,-6.3695,-6.3786,-6.3864,-6.3881,-6.391,-6.392,-6.3939,-6.3865,-6.3857,-6.3849,-6.3827,-6.3927,-6.3927,-6.4009,-6.401,-6.401]},{"header":{"parameterUnit":"m.s-1","parameterCategory":1,"la1":30.2991,"la2":30.254,"lo1":-89.0895,"lo2":-89.0444,"dy":0.0017,"dx":0.0017,"nx":28,"ny":28,"refTime":"2024-04-09T21:00:00:Z","depth":0,"parameterNumber":3,"parameterNumberName":"V-component_of_WINDS"},"data":[0,0,0,0,0,0,0,0,0,0,0,0,0,0,0,0,0,0,0,0,0,0,0,0,0,0,0,0,0,0,0,0,0,0,0,0,0,0,0,0,0,0,0,0,0,0,0,0,0,0,0,0,0,0,0,0,0,0,5.6055,5.6056,0,5.6146,5.6147,5.6148,5.6143,5.6142,5.6141,5.614,5.6228,5.6231,5.6234,0,0,0,0,0,0,0,0,0,0,0,0,0,5.5874,5.5878,5.6055,5.6056,5.6057,5.6145,5.6147,5.6148,5.6144,5.6142,5.6141,5.6139,5.6226,5.6231,5.6235,0,0,0,0,0,0,0,0,0,0,0,0,0,5.5957,5.5879,5.6054,5.6066,5.6068,5.6145,5.6147,5.6148,5.6144,5.6142,5.614,5.6138,5.6225,5.623,5.6235,5.6306,0,0,5.6251,5.6254,0,0,0,0,0,0,0,0,5.5953,5.5964,5.6063,5.6065,5.6067,5.6131,5.6115,5.6201,5.6144,5.6115,5.614,5.6137,5.6197,5.6204,5.6225,5.631,5.6314,5.6252,5.6255,5.6257,5.6259,0,0,0,0,0,0,0,5.5947,5.596,5.609,5.6064,5.6067,5.6065,5.6075,5.6131,5.6165,5.6117,5.6117,5.6128,5.6197,5.622,5.6227,5.6315,5.6252,5.6256,5.626,5.6262,5.6464,5.6466,0,0,0,0,0,0,5.5939,5.5955,5.6088,5.6093,5.6004,5.607,5.6081,5.6113,5.6165,5.6171,5.613,5.6128,5.6212,5.6221,5.623,5.6318,5.6257,5.6262,5.6265,5.6462,5.6465,5.6467,0,0,0,0,0,0,5.5936,5.5951,5.6084,5.6024,5.6041,5.6075,5.6111,5.6115,5.6138,5.6174,5.618,5.6147,5.6211,5.6223,5.6288,5.6321,5.6265,5.6269,5.646,5.6463,5.6466,5.6493,0,0,0,0,0,0,5.593,5.595,5.5978,5.6025,5.6044,5.6141,5.6113,5.6119,5.6148,5.6146,5.6192,5.6197,5.621,5.628,5.6293,5.6327,5.6274,5.6457,5.6461,5.6465,5.6489,5.6496,5.6503,0,0,0,0,0,5.5924,5.598,5.5979,5.5995,5.608,5.6143,5.6154,5.6169,5.615,5.6179,5.6202,5.6196,5.6315,5.6287,5.6302,5.6337,5.6455,5.646,5.6465,5.6486,5.6495,5.6503,0,0,0,0,0,0,5.5933,5.5986,5.5986,5.6059,5.6097,5.6142,5.6178,5.6178,5.622,5.6217,5.6232,5.6242,5.6308,5.6329,5.6297,5.6409,5.6382,5.6391,5.6393,5.6402,5.6409,5.6403,5.6278,0,0,0,0,0,5.5944,5.5992,5.6035,5.6096,5.6115,5.6144,5.6171,5.618,5.6219,5.6234,5.6262,5.6299,5.6345,5.6375,5.6419,5.6492,5.6502,5.6524,5.6531,5.6536,5.6543,5.6585,5.6595,5.6484,5.6484,5.6483,0,0,5.5966,5.6002,5.603,5.6099,5.6129,5.6178,5.6157,5.6208,5.6245,5.6242,5.6306,5.6328,5.637,5.644,5.6472,5.6459,5.6577,5.6543,5.6547,5.6551,5.6591,5.6601,5.6611,5.6487,5.6486,5.6486,0,0,5.6032,5.6064,5.6119,5.615,5.6197,5.6216,5.6229,5.6275,5.629,5.6356,5.6355,5.6397,5.6476,5.6506,5.6532,5.6612,5.6608,5.6626,5.6662,5.6702,5.6711,5.6719,5.6748,5.6758,5.6632,5.6633,5.6633,0,5.6054,5.6129,5.6146,5.62,5.623,5.6232,5.6287,5.6316,5.6374,5.6395,5.638,5.648,5.6509,5.6587,5.6606,5.6627,5.6642,5.662,5.6709,5.6717,5.6724,5.6752,5.6763,5.6634,5.6634,5.6634,5.6634,0,5.6153,5.6205,5.6243,5.6303,5.6337,5.6391,5.6416,5.6448,5.6455,5.6475,5.6541,5.6576,5.6628,5.6647,5.6652,5.6726,5.6717,5.6705,5.6679,5.6737,5.6763,5.6774,5.6637,5.6636,5.6636,5.6635,0,0,5.6226,5.6296,5.631,5.6338,5.6391,5.6431,5.6485,5.6538,5.6566,5.6606,5.6652,5.6719,5.671,5.6739,5.6748,5.6783,5.6846,5.6768,5.6769,5.6782,5.6931,5.6939,5.6952,5.6844,5.6846,5.6848,5.6927,0,5.6298,5.6397,5.6415,5.65,5.6548,5.6552,5.6599,5.6636,5.6657,5.67,5.6722,5.6771,5.6754,5.6772,5.6807,5.6831,5.6876,5.6825,5.6886,5.6888,5.6876,5.6965,5.6974,5.7048,5.6938,5.6939,5.6941,0,5.6395,5.6441,5.6532,5.658,5.6601,5.6644,5.6695,5.6736,5.6778,5.6791,5.6825,5.6831,5.6887,5.6858,5.6935,5.69,5.6926,5.6942,5.6945,5.6951,5.6918,5.6974,5.7071,5.7082,5.6957,5.6956,5.6955,0,5.6441,5.6525,5.6591,5.6614,5.6672,5.6702,5.6727,5.6768,5.6799,5.6843,5.6863,5.6912,5.6939,5.6977,5.6995,5.6972,5.7071,5.7043,5.7083,5.7083,5.7103,5.7102,5.7206,5.712,5.7119,5.7119,5.7119,0,5.652,5.6575,5.6612,5.6653,5.6715,5.6735,5.6796,5.682,5.6857,5.6902,5.6907,5.6948,5.697,5.7014,5.7029,5.7091,5.7103,5.7114,5.7117,5.7114,5.7113,5.7131,5.7127,5.7122,5.7121,5.7121,5.712,0,5.6581,5.6608,5.668,5.673,5.6744,5.6788,5.683,5.6869,5.689,5.6947,5.6961,5.6994,5.7047,5.7069,5.7133,5.7143,5.7215,5.7214,5.7201,5.7202,5.7241,5.7237,5.7361,5.7378,5.728,5.7281,5.7281,0,5.663,5.6673,5.6729,5.676,5.6787,5.6837,5.687,5.6891,5.6925,5.6978,5.7011,5.7064,5.7108,5.7192,5.7221,5.727,5.7271,5.7311,5.7278,5.7274,5.7273,5.727,5.7275,5.7317,5.7318,5.7319,5.7319,0,5.6714,5.6726,5.6774,5.6828,5.6868,5.691,5.6951,5.6976,5.7004,5.7041,5.7097,5.7131,5.7199,5.7252,5.7303,5.7328,5.7328,5.733,5.7341,5.7339,5.733,5.7336,5.7218,5.7326,5.7326,5.7325,5.7325,5.7325,5.6771,5.6811,5.6857,5.6911,5.6945,5.6984,5.7024,5.7051,5.7098,5.7156,5.7166,5.7225,5.7267,5.7337,5.7364,5.741,5.7399,5.7416,5.7421,5.7425,5.7428,5.7323,5.7419,5.7419,5.7418,5.7418,5.7418,0,5.6857,5.6887,5.6937,5.6996,5.7039,5.7038,5.7084,5.7119,5.7172,5.7212,5.7256,5.732,5.7372,5.7406,5.7458,5.7489,5.749,5.7502,5.75,5.7506,5.7433,5.7418,5.75,5.75,5.75,5.75,5.75,5.7499,5.6907,5.6974,5.6991,5.7075,5.7105,5.7165,5.7192,5.7228,5.726,5.7332,5.7377,5.7399,5.7436,5.7492,5.7539,5.7548,5.7567,5.7579,5.7587,5.7519,5.751,5.7502,5.7488,5.7583,5.7583,5.7656,5.7656,5.7657]}]]